This is the latest recevied weather packets stored in our database for station/object F6BIJ-13. If no packets are shown the sender has not sent any weather packets the latest 10 day(s).
| Time | Temp. | Humidity | Pressure | Rain* | Wind** | Luminosity | Snow |
|---|---|---|---|---|---|---|---|
| 1777539360 | 16.67° C | 54% | 1020.4 hPa | 0 mm | - | - | - |
| 1777537477 | 17.22° C | 50% | 1020.4 hPa | 0 mm | - | - | - |
| 1777537118 | 17.22° C | 51% | 1020.4 hPa | 0 mm | - | - | - |
| 1777536757 | 16.67° C | 49% | 1020.4 hPa | 0 mm | - | - | - |
| 1777536396 | 17.78° C | 53% | 1020.3 hPa | 0 mm | - | - | - |
| 1777536037 | 16.67° C | 50% | 1020.4 hPa | 0 mm | - | - | - |
| 1777535677 | 16.67° C | 52% | 1020.4 hPa | 0 mm | - | - | - |
| 1777535317 | 16.67° C | 53% | 1020.5 hPa | 0 mm | - | - | - |
| 1777534957 | 16.67° C | 52% | 1020.3 hPa | 0 mm | - | - | - |
| 1777534597 | 16.11° C | 53% | 1020.4 hPa | 0 mm | - | - | - |
| 1777534238 | 16.67° C | 53% | 1020.4 hPa | 0 mm | - | - | - |
| 1777533877 | 16.67° C | 53% | 1020.4 hPa | 0 mm | - | - | - |
| 1777533517 | 16.67° C | 52% | 1020.4 hPa | 0 mm | - | - | - |
| 1777533157 | 16.11° C | 54% | 1020.4 hPa | 0 mm | - | - | - |
| 1777532797 | 16.67° C | 53% | 1020.3 hPa | 0 mm | - | - | - |
| 1777532437 | 16.11° C | 53% | 1020.4 hPa | 0 mm | - | - | - |
| 1777532077 | 15.56° C | 55% | 1020.3 hPa | 0 mm | - | - | - |
| 1777531717 | 16.11° C | 54% | 1020.3 hPa | 0 mm | - | - | - |
| 1777531357 | 15° C | 57% | 1020.3 hPa | 0 mm | - | - | - |
| 1777530997 | 15.56° C | 56% | 1020.3 hPa | 0 mm | - | - | - |
| 1777530637 | 14.44° C | 58% | 1020.3 hPa | 0 mm | - | - | - |
| 1777530277 | 15° C | 63% | 1020.2 hPa | 0 mm | - | - | - |
| 1777529917 | 13.89° C | 65% | 1020.3 hPa | 0 mm | - | - | - |
| 1777529557 | 13.33° C | 64% | 1020.3 hPa | 0 mm | - | - | - |
| 1777529197 | 13.33° C | 67% | 1020.2 hPa | 0 mm | - | - | - |
* Rain latest 24 hours (hover to see other rain measurements)
** Current wind speed in m/s (hover to see current wind gust speed)